Location: Axtheid
(49.6213°N, 11.8205°E)
Time: 04:39:32
(UTC+00:00)

Cosmos 1703 - Pass Details

Date: 24 January 2021
Orbit: 524 x 538 km, 82.5° (Epoch: 26 February)

Event Time Altitude Azimuth Distance (km) Brightness Sun altitude
Rises 16:46:49 0° 154° (SSE) 2,652 6.7 -8.5°
Reaches altitude 10° 16:49:18 10° 138° (SE) 1,767 5.7 -8.8°
Maximum altitude 16:52:16 21° 88° (E) 1,205 4.5 -9.3°
Drops below altitude 10° 16:55:16 10° 38° (NE) 1,777 5.4 -9.8°
Enters shadow 16:55:56 - 32° (NNE) 2,000 5.7 -9.9°
